Location: LDNL
(36.4545°S, 141.6685°E)
Time: 04:03:45
(UTC+10:00)

Courier 1B Rocket - Pass Details

Date: 30 May 2024
Orbit: 920 x 1201 km, 28.3° (Epoch: 14 June)

Event Time Altitude Azimuth Distance (km) Brightness Sun altitude
Exits shadow 05:47:46 19° 306° (NW) 2,484 6.7 -21.1°
Maximum altitude 05:50:50 24° 337° (NNW) 2,232 6.8 -20.5°
Drops below altitude 10° 05:56:48 10° 28° (NNE) 3,129 8.2 -19.3°
Sets 06:00:16 0° 40° (NE) 4,089 9.1 -18.7°
